Home > Weather > Faro > Past weeks

Flag for Portugal Past Weather in Faro, Portugal — Yesterday and Last 2 Weeks

Now
86 °F

Sunny.


Feels Like: 84 °F
Forecast: 66 / 85 °F
Wind: 13 mph from Northwest

Location: Faro / Aeroporto

Current Time: Aug 29, 2016 at 8:55:12 PM

Latest Report: Aug 29, 2016 at 8:30 PM


Visibility: 10 mi

Pressure: 30.01 "Hg

Humidity: 29%

Dew Point: 50 °F

Location of FaroLocation

Past Weather in Faro — Graph

°F

Faro Temperature Yesterday

Maximum temperature yesterday: 90 °F (at 7:30 PM)
Minimum temperature yesterday: 72 °F (at 4:30 AM)
Average temperature yesterday: 80 °F

High & Low Weather Summary for the Past Weeks

 TemperatureHumidityPressure
High91 °F (Aug 20, 7:00 PM)94% (Aug 27, 7:30 AM)30.09 "Hg (Aug 27, 7:30 AM)
Low66 °F (Aug 19, 7:30 AM)13% (Aug 20, 7:00 PM)29.86 "Hg (Aug 18, 6:00 PM)
Average78 °F61%29.99 "Hg
* Reported Aug 14 7:00 PM — Aug 29 7:30 PM, Faro, Weather by CustomWeather, © 2016

Note: Actual official high and low records may vary slightly from our data, if they occured in-between our weather recording intervals... More about our weather records

Advertising

Faro Weather History for the Previous 24 Hours

Scroll right to see more
 ConditionsComfort  
Time TempWeatherWind HumidityBarometerVisibility
7:30 PM
Mon, Aug 29
82 °FSunny.9 mph55%30.01 "Hg10 mi
7:00 PM82 °FSunny.12 mph58%30.01 "Hg10 mi
6:30 PM82 °FSunny.14 mph62%30.01 "Hg10 mi
6:00 PM82 °FSunny.16 mph62%30.01 "Hg10 mi
5:30 PM82 °FSunny.17 mph58%30.01 "Hg10 mi
5:00 PM84 °FSunny.18 mph55%30.04 "Hg10 mi
4:30 PM84 °FSunny.17 mph55%30.04 "Hg10 mi
4:00 PM84 °FSunny.18 mph55%30.04 "Hg10 mi
3:30 PM84 °FSunny.15 mph51%30.04 "Hg10 mi
3:00 PM84 °FSunny.15 mph51%30.07 "Hg10 mi
2:30 PM84 °FSunny.16 mph48%30.07 "Hg10 mi
2:00 PM82 °FSunny.15 mph55%30.07 "Hg10 mi
1:30 PM82 °FSunny.16 mph51%30.07 "Hg10 mi
1:00 PM86 °FSunny.16 mph31%30.09 "Hg10 mi
12:30 PM86 °FSunny.17 mph35%30.09 "Hg10 mi
12:00 PM86 °FSunny.14 mph31%30.09 "Hg10 mi
11:30 AM82 °FSunny.13 mph37%30.09 "Hg10 mi
11:00 AM82 °FSunny.13 mph40%30.09 "Hg10 mi
10:30 AM81 °FSunny.8 mph45%30.09 "Hg10 mi
10:00 AM82 °FSunny.8 mph35%30.09 "Hg10 mi
9:30 AM81 °FSunny.5 mph32%30.09 "Hg10 mi
9:00 AM81 °FPassing clouds.3 mph30%30.09 "HgN/A
8:30 AM79 °FSunny.2 mph32%30.09 "Hg10 mi
8:00 AM77 °FPassing clouds.5 mph36%30.07 "HgN/A
7:30 AM73 °FClear.6 mph47%30.07 "Hg10 mi
7:00 AM73 °FClear.No wind41%30.07 "Hg10 mi
6:30 AM73 °FPassing clouds.5 mph38%30.07 "HgN/A
6:00 AM73 °FClear.5 mph47%30.07 "Hg10 mi
5:30 AM73 °FClear.2 mph50%30.07 "Hg10 mi
5:00 AM77 °FClear.No wind39%30.07 "Hg10 mi
4:30 AM77 °FClear.2 mph42%30.07 "Hg10 mi
4:00 AM77 °FClear.5 mph42%30.07 "Hg10 mi
3:30 AM75 °FClear.2 mph50%30.07 "Hg10 mi
3:00 AM75 °FClear.5 mph54%30.07 "Hg10 mi
2:30 AM77 °FClear.8 mph51%30.09 "Hg10 mi
2:00 AM77 °FClear.9 mph54%30.09 "Hg10 mi
1:30 AM79 °FClear.9 mph54%30.09 "Hg10 mi
1:00 AM79 °FClear.7 mph54%30.09 "Hg10 mi
12:30 AM81 °FClear.12 mph51%30.09 "Hg10 mi
12:00 AM81 °FClear.12 mph54%30.09 "Hg10 mi
11:30 PM
Sun, Aug 28
82 °FClear.9 mph48%30.09 "Hg10 mi
11:00 PM82 °FClear.12 mph51%30.09 "Hg10 mi
10:30 PM82 °FClear.9 mph48%30.09 "Hg10 mi
10:00 PM84 °FClear.9 mph43%30.09 "Hg10 mi
9:30 PM84 °FClear.9 mph43%30.07 "Hg10 mi
9:00 PM86 °FSunny.9 mph40%30.07 "Hg10 mi
8:30 PM88 °FSunny.12 mph33%30.04 "Hg10 mi
8:00 PM90 °FSunny.12 mph31%30.04 "Hg10 mi
Weather by CustomWeather, © 2016

See weather overviewHow to use our weather pages